This demonstration page uses our WeatherBlox Daily Observations layout. Learn more.

Left ArrowRight Arrow

Hourly Observations for February 2, 2019

Temp ( °F °C ) Dew Point ( °F °C ) Humidity (%) Winds ( mph kmh ) Pressure ( in mb ) Visibility ( mi km ) Precip ( " mm )
12:15 am 00:15 Clear 14 -10 14 -10 100 100 SSE 7 11 30.37 1029 7 11 N/A
12:36 am 00:36 Clear 14 -10 14 -10 100 100 SE 7 11 30.37 1029 7 11 N/A
12:55 am 00:55 Clear 16 -9 16 -9 100 100 SE 6 9 30.36 1028 7 11 N/A
1:15 am 01:15 Clear 14 -10 14 -10 100 100 SE 6 9 30.36 1028 5 8 N/A
1:36 am 01:36 Clear 16 -9 16 -9 100 100 SSE 5 7 30.35 1028 5 8 N/A
1:55 am 01:55 Clear 14 -10 14 -10 100 100 SSE 5 7 30.35 1028 5 8 N/A
2:16 am 02:16 Clear 14 -10 14 -10 100 100 SSE 6 9 30.35 1028 4 6 N/A
2:35 am 02:35 Clear 14 -10 14 -10 100 100 SSE 7 11 30.34 1028 5 8 N/A
2:55 am 02:55 Clear 14 -10 14 -10 100 100 SSE 7 11 30.33 1027 5 8 N/A
3:16 am 03:16 Clear 16 -9 16 -9 100 100 S 7 11 30.33 1027 5 8 N/A
3:35 am 03:35 Clear 16 -9 16 -9 100 100 S 6 9 30.33 1027 5 8 N/A
3:55 am 03:55 Clear 16 -9 16 -9 100 100 S 7 11 30.33 1027 4 6 N/A
4:16 am 04:16 Mostly Cloudy 16 -9 16 -9 100 100 SSE 7 11 30.32 1027 1 2 N/A
4:35 am 04:35 Cloudy 16 -9 16 -9 100 100 S 5 7 30.32 1027 1 1 N/A
4:55 am 04:55 Cloudy 16 -9 16 -9 100 100 S 3 6 30.32 1027 1 1 N/A
5:16 am 05:16 Cloudy 16 -9 16 -9 100 100 N N/A 30.32 1027 0 0 N/A
5:35 am 05:35 Cloudy 16 -9 16 -9 100 100 S 3 6 30.31 1026 1 1 N/A
5:55 am 05:55 Cloudy 18 -8 18 -8 100 100 S 7 11 30.31 1026 0 0 N/A
6:16 am 06:16 Cloudy 18 -8 18 -8 100 100 S 7 11 30.31 1026 1 1 N/A
6:35 am 06:35 Cloudy 19 -7 19 -7 100 100 S 7 11 30.29 1026 1 1 N/A
6:56 am 06:56 Cloudy 21 -6 21 -6 100 100 S 7 11 30.29 1026 1 1 N/A
7:16 am 07:16 Cloudy 21 -6 21 -6 100 100 S 5 7 30.29 1026 0 0 N/A
7:35 am 07:35 Cloudy 21 -6 21 -6 100 100 S 6 9 30.28 1025 0 0 N/A
7:56 am 07:56 Cloudy 21 -6 21 -6 100 100 N N/A 30.28 1025 5 8 N/A
8:16 am 08:16 Cloudy 21 -6 21 -6 100 100 S 3 6 30.28 1025 0 0 N/A
8:35 am 08:35 Cloudy 21 -6 21 -6 100 100 S 6 9 30.28 1025 0 0 N/A
8:56 am 08:56 Cloudy 23 -5 23 -5 100 100 S 5 7 30.28 1026 0 0 N/A
9:16 am 09:16 Cloudy 23 -5 23 -5 100 100 S 6 9 30.27 1025 0 0 N/A
9:35 am 09:35 Cloudy 25 -4 25 -4 100 100 S 7 11 30.27 1025 0 0 N/A
9:56 am 09:56 Cloudy 25 -4 25 -4 100 100 S 6 9 30.27 1025 1 1 N/A
10:16 am 10:16 Cloudy 27 -3 27 -3 100 100 S 6 9 30.27 1025 1 1 N/A
10:35 am 10:35 Cloudy 28 -2 28 -2 100 100 S 7 11 30.27 1025 1 2 N/A
10:56 am 10:56 Cloudy 28 -2 28 -2 100 100 S 5 7 30.26 1025 2 2 N/A
11:16 am 11:16 Cloudy 30 -1 30 -1 100 100 S 8 13 30.26 1025 3 4 N/A
11:35 am 11:35 Cloudy 30 -1 30 -1 100 100 S 5 7 30.26 1025 3 4 N/A
11:56 am 11:56 Cloudy 30 -1 30 -1 100 100 S 6 9 30.26 1025 3 5 N/A
12:15 pm 12:15 Cloudy 32 undefined 32 undefined 100 100 S 8 13 30.25 1024 4 6 N/A
12:36 pm 12:36 Cloudy 32 undefined 32 undefined 100 100 S 7 11 30.24 1024 4 6 N/A
12:56 pm 12:56 Cloudy 32 undefined 32 undefined 100 100 S 7 11 30.23 1024 5 8 N/A
1:15 pm 13:15 Partly Cloudy 34 1 34 1 100 100 S 7 11 30.21 1023 5 8 N/A
1:36 pm 13:36 Mostly Cloudy 34 1 34 1 100 100 S 8 13 30.20 1023 7 11 N/A
1:56 pm 13:56 Cloudy 34 1 34 1 100 100 S 7 11 30.20 1023 7 11 N/A
2:15 pm 14:15 Cloudy 36 2 36 2 100 100 S 8 13 30.18 1022 7 11 N/A
2:36 pm 14:36 Cloudy 36 2 36 2 100 100 S 7 11 30.17 1022 7 11 N/A
2:55 pm 14:55 Mostly Cloudy 37 3 36 2 93 93 S 7 11 30.15 1021 7 11 N/A
3:15 pm 15:15 Sunny 37 3 36 2 93 93 S 6 9 30.15 1021 7 11 N/A
3:36 pm 15:36 Sunny 37 3 36 2 93 93 S 8 13 30.14 1021 7 11 N/A
3:55 pm 15:55 Sunny 39 4 37 3 93 93 S 8 13 30.14 1021 7 11 N/A
4:16 pm 16:16 Sunny 39 4 37 3 93 93 S 6 9 30.14 1021 7 11 N/A
4:35 pm 16:35 Partly Cloudy 39 4 37 3 93 93 S 7 11 30.14 1021 7 11 N/A
4:56 pm 16:56 Partly Cloudy 39 4 39 4 100 100 S 6 9 30.13 1020 7 11 N/A
5:16 pm 17:16 Sunny 39 4 39 4 100 100 S 7 11 30.12 1020 7 11 N/A
5:35 pm 17:35 Sunny 37 3 37 3 100 100 S 6 9 30.12 1020 7 11 N/A
5:56 pm 17:56 Partly Cloudy 37 3 37 3 100 100 S 6 9 30.11 1020 7 11 N/A
6:16 pm 18:16 Clear 37 3 37 3 100 100 S 7 11 30.11 1020 5 8 N/A
6:35 pm 18:35 Clear 36 2 36 2 100 100 SSE 6 9 30.12 1020 5 8 N/A
6:56 pm 18:56 Clear 36 2 36 2 100 100 S 8 13 30.12 1020 5 8 N/A
7:15 pm 19:15 Clear 36 2 36 2 100 100 S 8 13 30.12 1020 5 8 N/A
7:35 pm 19:35 Clear 36 2 36 2 100 100 S 8 13 30.12 1020 5 8 N/A
7:56 pm 19:56 Clear 36 2 36 2 100 100 S 7 11 30.11 1020 4 6 N/A
8:15 pm 20:15 Clear 36 2 36 2 100 100 S 7 11 30.11 1020 4 6 N/A
8:36 pm 20:36 Clear 36 2 36 2 100 100 S 8 13 30.10 1019 4 6 N/A
8:55 pm 20:55 Clear 37 3 37 3 100 100 S 8 13 30.09 1019 5 8 N/A
9:15 pm 21:15 Clear 36 2 36 2 100 100 S 7 11 30.10 1019 4 6 N/A
9:36 pm 21:36 Clear 36 2 36 2 100 100 S 6 9 30.11 1020 4 6 N/A
9:55 pm 21:55 Clear 36 2 36 2 100 100 S 6 9 30.11 1020 4 6 N/A
10:15 pm 22:15 Clear 36 2 36 2 100 100 S 6 9 30.10 1019 4 6 N/A
10:36 pm 22:36 Clear 36 2 36 2 100 100 S 7 11 30.11 1020 4 6 N/A
10:56 pm 22:56 Clear 36 2 36 2 100 100 S 7 11 30.10 1019 4 6 N/A
11:15 pm 23:15 Clear 36 2 36 2 100 100 S 6 9 30.10 1019 5 8 N/A
11:36 pm 23:36 Clear 36 2 36 2 100 100 S 7 11 30.09 1019 5 8 N/A
11:55 pm 23:55 Clear 36 2 36 2 100 100 S 6 9 30.08 1019 5 8 N/A

Powered by AerisWeather